sat.trackr.live / text

‹ back to catalog

KUIPER-00142

NORAD 65766 · 2025-217E

PAYLOAD ACTIVE UNKNOWN

§ Identity

Operator
Country
US
Launch date
2025-09-25
Launch site
AFETR
Launch vehicle
Mass (kg)
RCS (m²)

External: N2YO · Heavens-Above · Gunter

§ Orbital elements

Epoch: 2026-05-25T04:51:51.375744Z

Period
97.30 min
Inclination
51.9003°
Eccentricity
0.0000840
Mean motion
14.79929651 rev/d
Perigee alt
629.0 km
Apogee alt
630.1 km
Semi-major
7,007.7 km
B*
5.3013e-4
RAAN
57.2450°
Arg perigee
93.7042°
Mean anomaly
266.4017°
Rev number
3,631

§ Raw data

KUIPER-001421 65766U 25217E   26145.20267796  .00003822  00000+0  53013-3 0  99932 65766  51.9003  57.2450 0000840  93.7042 266.4017 14.79929651 36312

JSON: /api/v1/satellites/65766 · /tle

For live sub-satellite position, see the globe view (requires WebGL).

§ Visibility from observer

Set your observer location to see the next 7 days of passes ≥ 10°. The values pass through the URL so the page stays shareable.

No JS? Fill the form by hand. The geolocation button needs JavaScript.